Regional Weather Roundup
Issued by NWS

Home | Current Version | Previous Version | Text Only | Print | Product List | Glossary Off
Versions: 1 2 3 4 5 6 7 8 9 10 11 12 13 14 15 16 17 18 19 20 21 22 23 24 25 26 27 28 29 30 31 32 33 34 35 36 37 38 39 40 41 42 43 44 45 46 47 48 49 50

000
ASUS43 KOAX 270510
RWRNE

WEATHER ROUNDUP FOR NEBRASKA
NATIONAL WEATHER SERVICE OMAHA NE
1100 PM CST MON JAN 26 2015

NOTES: SATELLITE DATA IS BEING USED TO AUGMENT CLOUD COVER ABOVE
       12000 FEET.
       "FAIR" INDICATES FEW OR NO CLOUDS BELOW 12,000 FEET WITH NO
       SIGNIFICANT WEATHER AND/OR OBSTRUCTIONS TO VISIBILITY.

  * THESE STATIONS DO NOT REPORT WEATHER SUCH AS RAIN...SNOW OR FOG.

NEZ001>004-019>022-054>056-270600-
NEBRASKA PANHANDLE

CITY           SKY/WX    TMP DP  RH WIND       PRES   REMARKS
SCOTTSBLUFF    CLEAR     41  30  65 NW9       30.11F
ALLIANCE       CLEAR     30  26  85 W6        30.08S WCI  24
CHADRON        CLEAR     37  29  72 W7        30.04S WCI  32
KIMBALL        CLEAR     39  27  60 W10       30.13F WCI  33
SIDNEY         CLEAR     38  27  64 W6        30.14S WCI  33
$$

NEZ057>060-069>072-079>082-270600-
SOUTHWEST NEBRASKA

CITY           SKY/WX    TMP DP  RH WIND       PRES   REMARKS
NORTH PLATTE   PTCLDY    28  24  85 W5        30.08R WCI  23
IMPERIAL       CLEAR     41  30  65 W9        30.10S
LEXINGTON      CLEAR     32  27  81 NW3       30.07R
MCCOOK         CLEAR     40  29  64 W7        30.08F
OGALLALA       CLEAR     32  29  87 W7        30.09F WCI  26
$$

NEZ005>010-023>029-035>040-094-270600-
NORTH CENTRAL NEBRASKA

CITY           SKY/WX    TMP DP  RH WIND       PRES   REMARKS
VALENTINE      CLEAR     34  30  85 SW5       30.02S WCI  30
AINSWORTH      CLEAR     33  28  84 SW3       30.03S
BROKEN BOW     CLEAR     30  26  85 CALM      30.05S
O`NEILL        CLEAR     38  32  77 CALM      30.04S
ORD            CLEAR     30  26  85 NW3       30.05R
THEDFORD       CLEAR     37  31  79 CALM      30.05R
$$

NEZ041-046>049-061>064-073>077-083>087-270600-
SOUTH CENTRAL NEBRASKA

CITY           SKY/WX    TMP DP  RH WIND       PRES   REMARKS
GRAND ISLAND   CLEAR     32  27  81 W5        30.06R WCI  27
AURORA         PTCLDY    33  28  82 W6        30.05S WCI  28
HASTINGS       PTCLDY    37  28  70 W7        30.06R WCI  32
HEBRON         CLEAR     32  27  79 CALM      30.06R
HOLDREGE       PTCLDY    37  27  67 SW5       30.07S WCI  34
KEARNEY *      PTCLDY    36  25  64 CALM      30.07S
YORK           PTCLDY    32  27  80 NW5       30.06R WCI  27
$$

NEZ011>018-030>034-042>045-270600-
NORTHEAST NEBRASKA

CITY           SKY/WX    TMP DP  RH WIND       PRES   REMARKS
NORFOLK        CLEAR     37  30  75 CALM      30.04R
ALBION         FAIR      31  26  80 CALM      30.04S
BLAIR          CLEAR     43  34  71 N9        30.03R
COLUMBUS *     CLEAR     28  21  74 NW5       30.06R WCI  23
FREMONT        CLEAR     36  31  82 W5        30.05R WCI  32
TEKAMAH        CLEAR     36  31  82 NW8       30.04R WCI  30
WAYNE          CLEAR     31  29  92 CALM      30.05R
$$

NEZ050>053-065>068-078-088>093-270600-
SOUTHEAST NEBRASKA

CITY           SKY/WX    TMP DP  RH WIND       PRES   REMARKS
LINCOLN        CLEAR     29  24  82 N3        30.06R
OMAHA EPPLEY   CLEAR     37  32  82 N10       30.03R WCI  30
BEATRICE       CLEAR     28  24  82 NW3       30.05R
FALLS CITY     CLEAR     35  28  75 NW7       30.03R WCI  29
NEBRASKA CITY  PTCLDY    42  29  60 NW9       30.03R
PLATTSMOUTH    PTCLDY    38  30  73 NW9       30.03R WCI  32
$$

NEZ044-045-051>053-067-270600-
OMAHA AREA

CITY           SKY/WX    TMP DP  RH WIND       PRES   REMARKS
OMAHA EPPLEY   CLEAR     37  32  82 N10       30.03R WCI  30
BLAIR          CLEAR     43  34  71 N9        30.03R
FREMONT        CLEAR     36  31  82 W5        30.05R WCI  32
MILLARD        CLEAR     36  32  84 CALM      30.04R
OFFUTT AFB     CLEAR     35  31  83 NW8       30.03R WCI  29
PLATTSMOUTH    PTCLDY    38  30  73 NW9       30.03R WCI  32
WAHOO          FAIR      32  27  80 NW5       30.05R WCI  27
$$



USA.gov is the U.S. government's official web portal to all federal, state and local government web resources and services.